Overview Statistics Trail Chart Weather Telemetry Raw packets
 

This is the latest recevied weather packets stored in our database for station/object SQ6ILB-11. If no packets are shown the sender has not sent any weather packets the latest 10 day(s).

<< 33 34 35 36 37 38 39 >>
Time Temp. Humidity Pressure Rain* Wind** Luminosity Snow
1787822772 20° C 64% 991.3 hPa - - - -
1787821872 19.44° C 65% 991.3 hPa - - - -
1787820971 18.33° C 67% 991.4 hPa - - - -
1787820071 17.78° C 70% 991.3 hPa - - - -
1787819171 17.22° C 72% 991.4 hPa - - - -
1787818271 16.67° C 71% 991.4 hPa - - - -
1787817371 16.11° C 74% 991.5 hPa - - - -
1787816471 15.56° C 75% 991.5 hPa - - - -
1787815571 14.44° C 78% 991.6 hPa - - - -
1787814670 13.89° C 82% 991.6 hPa - - - -
1787813770 13.33° C 77% 991.5 hPa - - - -
1787812870 12.78° C 77% 991.4 hPa - - - -
1787811970 12.22° C 82% 991.3 hPa - - - -
1787811070 12.22° C 83% 991.3 hPa - - - -
1787810169 11.67° C 82% 991.2 hPa - - - -
1787809269 11.11° C 81% 991.3 hPa - - - -
1787808369 11.11° C 69% 991.4 hPa - - - -
1787807468 11.67° C 69% 991.7 hPa - - - -
1787806568 11.67° C 69% 991.6 hPa - - - -
1787805668 11.67° C 69% 991.4 hPa - - - -
1787804768 11.67° C 69% 991.3 hPa - - - -
1787803868 12.22° C 69% 991.5 hPa - - - -
1787802968 12.22° C 69% 991.5 hPa - - - -
1787802068 12.22° C 69% 991.4 hPa - - - -
1787801167 12.22° C 69% 991.3 hPa - - - -

* Rain since midnight (hover to see other rain measurements)
** Current wind speed in m/s (hover to see current wind gust speed)